KC2YYF Weather Reports


time (UTC)temp
F
wind
direction
speed
knots
gust
knots
rain 1hr
in
rain 24hr
in
rain mn
in
humidity
%
barometer
mb
20260504184551 68 327 4.3 13.9 0.00 0.00 0.00 35 1008.9
20260504183041 67 306 4.3 15.6 0.00 0.00 0.00 32 1009.1
20260504181543 68 269 7.0 18.2 0.00 0.00 0.00 32 1009.1
20260504180057 67 263 7.0 15.6 0.00 0.00 0.00 36 1009.3
20260504174545 67 292 6.1 13.0 0.00 0.00 0.00 36 1009.5
20260504173053 66 325 5.2 16.5 0.00 0.00 0.00 35 1009.6
20260504171542 65 304 4.3 15.6 0.00 0.00 0.00 36 1009.8
20260504081542 41 290 0.9 6.1 0.00 0.00 0.00 64 1012.1
20260504050110 41 0 0.0 3.5 0.00 0.00 0.00 65 1011.6
20260504044541 43 0 0.0 3.5 0.00 0.00 0.00 62 1011.5
20260504043041 43 0 0.9 2.6 0.00 0.00 0.00 57 1011.3
20260504041541 44 310 0.9 2.6 0.00 0.00 0.00 56 1011.4
20260504040042 44 326 0.9 2.6 0.00 0.00 0.00 55 1011.1
20260504034546 45 310 0.9 2.6 0.00 0.00 0.00 54 1011.1
20260504033045 45 308 0.0 2.6 0.00 0.00 0.00 53 1011.1
20260504031601 46 292 0.9 2.6 0.00 0.00 0.00 52 1011.2
20260504030043 46 328 0.9 2.6 0.00 0.00 0.00 52 1011.2
20260504024540 47 334 0.9 5.2 0.00 0.00 0.00 51 1011.2
20260504023036 47 340 0.0 3.5 0.00 0.00 0.00 50 1011.4
20260504021543 47 302 0.9 2.6 0.00 0.00 0.00 50 1011.4
20260504020042 48 0 0.0 2.6 0.00 0.00 0.00 49 1011.4
20260504014543 48 0 0.0 2.6 0.00 0.00 0.00 49 1011.4
20260504013041 48 0 0.0 0.0 0.00 0.00 0.00 49 1011.2
20260504011537 48 309 0.0 2.6 0.00 0.00 0.00 48 1011.2
20260504010042 48 0 0.0 2.6 0.00 0.00 0.00 47 1011.1
20260504004543 49 288 0.0 1.7 0.00 0.00 0.00 47 1010.9
20260504003046 49 0 0.0 2.6 0.00 0.00 0.00 47 1010.8
20260504001556 50 288 0.9 5.2 0.00 0.00 0.00 46 1010.6
20260504000040 50 270 1.7 7.0 0.00 0.00 0.00 45 1010.3
20260503234536 51 319 1.7 5.2 0.00 0.00 0.00 44 1010.1
20260503233043 52 252 0.9 8.7 0.00 0.00 0.00 43 1010.1
20260503231548 52 325 0.9 7.0 0.00 0.00 0.00 40 1010.1
20260503230041 53 250 2.6 8.7 0.00 0.00 0.00 39 1009.9
20260503224538 53 70 1.7 8.7 0.00 0.00 0.00 37 1009.7
20260503223039 54 275 2.6 7.8 0.00 0.00 0.00 37 1009.6
20260503221536 54 309 1.7 7.0 0.00 0.00 0.00 34 1009.6
20260503220043 54 169 4.3 13.0 0.00 0.00 0.00 34 1009.4
20260503214548 54 0 1.7 7.0 0.00 0.00 0.00 35 1009.5
20260503213103 55 296 2.6 8.7 0.00 0.00 0.00 33 1009.4
20260503211556 54 190 4.3 9.6 0.00 0.00 0.00 33 1009.1
20260503210036 55 248 2.6 12.2 0.00 0.00 0.00 32 1009.3
20260503204558 56 226 5.2 14.8 0.00 0.00 0.00 30 1009.3
20260503203041 55 350 3.5 10.4 0.00 0.00 0.00 33 1009.2
20260503201541 55 162 4.3 11.3 0.00 0.00 0.00 34 1009.6
20260503200040 55 43 2.6 12.2 0.00 0.00 0.00 31 1009.6
20260503194543 55 247 3.5 12.2 0.00 0.00 0.00 32 1009.6
20260503193045 55 182 4.3 20.0 0.00 0.00 0.00 33 1009.9
20260503191556 55 192 3.5 10.4 0.00 0.00 0.00 34 1009.9
20260503190043 54 194 2.6 11.3 0.00 0.00 0.00 33 1010.0